Home   Weather   Taiohae   Past weeks
Flag for French Polynesia

Past Weather in Taiohae, Marquesas Islands, French Polynesia — Yesterday and Last 2 Weeks

Now
81 °F

Warm.


Feels Like: 86 °F
Forecast: 84 / 79 °F
Wind: 8 mph from East

Location: Atuona

Current Time: May 29, 2020 at 11:54:06 pm

Latest Report: May 29, 2020 at 10:30 pm


Visibility: N/A

Pressure: 30.01 "Hg

Humidity: 78%

Dew Point: 74 °F

Location of TaiohaeLocation

Past Weather in Taiohae — Graph

°F

Taiohae Temperature Yesterday

Maximum temperature yesterday: 87 °F (at 11:30 am)
Minimum temperature yesterday: 74 °F (at 2:30 am)
Average temperature yesterday: 80 °F

High & Low Weather Summary for the Past Weeks

 TemperatureHumidityPressure
High88 °F (May 24, 10:30 am)92% (May 27, 7:30 am)30.06 "Hg (May 27, 7:30 am)
Low73 °F (May 19, 5:30 am)56% (May 26, 4:30 pm)29.79 "Hg (May 17, 3:30 pm)
Average79 °F77%29.91 "Hg
* Reported May 14 10:30 pm — May 29 10:30 pm, Taiohae. Weather by CustomWeather, © 2020

Note: Actual official high and low records may vary slightly from our data, if they occured in-between our weather recording intervals... More about our weather records

Taiohae Weather History for the Previous 24 Hours

Scroll right to see more
 ConditionsComfort  
Time TempWeatherWind HumidityBarometerVisibility
10:30 pm
Fri, May 29
81 °FWarm.8 mph78%30.01 "HgN/A
9:30 pm81 °FWarm.12 mph78%30.01 "HgN/A
8:30 pm82 °FWarm.7 mph78%30.00 "HgN/A
7:30 pm82 °FWarm.7 mph76%30.00 "HgN/A
6:30 pm81 °FWarm.5 mph75%29.98 "HgN/A
5:30 pm81 °FWarm.10 mph77%29.97 "HgN/A
4:30 pm82 °FWarm.2 mph80%29.96 "HgN/A
3:30 pm81 °FPartly sunny.3 mph75%29.96 "Hg19 mi
2:30 pm84 °FScattered clouds.8 mph72%29.95 "Hg19 mi
1:30 pm84 °FScattered clouds.7 mph71%29.97 "Hg19 mi
12:30 pm85 °FWarm.9 mph71%29.98 "HgN/A
11:30 am83 °FWarm.9 mph76%30.01 "HgN/A
10:30 am83 °FScattered clouds.8 mph73%30.03 "Hg19 mi
9:30 am80 °FSprinkles. Partly sunny.7 mph84%30.05 "Hg6 mi
8:30 am81 °FSprinkles. Partly sunny.7 mph82%30.06 "Hg6 mi
7:30 am79 °FPartly sunny.2 mph86%30.04 "Hg25 mi
6:30 am76 °FScattered clouds.5 mph91%30.03 "Hg25 mi
5:30 am76 °FScattered clouds.2 mph91%30.01 "Hg25 mi
4:30 am76 °FMild.3 mph90%29.99 "HgN/A
3:30 am76 °FMild.No wind90%29.98 "HgN/A
2:30 am76 °FMild.2 mph91%29.98 "HgN/A
1:30 am76 °FMild.No wind90%29.99 "HgN/A
12:30 am76 °FMild.No wind91%30.00 "HgN/A
11:30 pm
Thu, May 28
77 °FWarm.5 mph91%30.01 "HgN/A
Weather by CustomWeather, © 2020

See weather overview

Advertising